Location: *
(49.0044°N, 9.5056°E)
Time: 09:21:25
(UTC+00:00)

Cosmos 1455 Rocket - Pass Details

Date: 22 September 2019
Orbit: 605 x 629 km, 82.5° (Epoch: 15 October)

Event Time Altitude Azimuth Distance (km) Brightness Sun altitude
Rises 18:05:02 0° 154° (SSE) 2,897 6.1 -8.0°
Reaches altitude 10° 18:07:34 10° 140° (SE) 1,999 5.2 -8.5°
Maximum altitude 18:11:07 24° 87° (E) 1,315 4.2 -9.0°
Drops below altitude 10° 18:14:41 10° 34° (NE) 2,019 5.5 -9.6°
Sets 18:17:15 0° 21° (NNE) 2,933 6.4 -10.0°
